Preview of NWS' New Version of Forecast
This preview is not operational and should not be used for support decisions.

Regional Weather Roundup (RWR)

Issued by National Weather Service (NWS)

                            
000
ASUS42 KTBW 250215
RWRFL 
FLORIDA REGIONAL WEATHER ROUNDUP
NATIONAL WEATHER SERVICE TAMPA BAY RUSKIN FL
1000 PM EDT MON JUN 24 2019

NOTE: "FAIR" INDICATES FEW OR NO CLOUDS BELOW 12,000 FEET WITH NO
SIGNIFICANT WEATHER AND/OR OBSTRUCTIONS TO VISIBILITY.

FLZ001>010-012>015-112-114-115-250300-
PANHANDLE FLORIDA
  
CITY           SKY/WX    TMP DP  RH WIND       PRES   REMARKS
PENSACOLA      FAIR      83  76  79 SW9       29.97R                  
PENSACOLA NAS  MOCLDY    82  78  88 SW6       29.97R                  
MILTON NAS     MOCLDY    81  73  76 SW6       29.97R                  
CRESTVIEW      FAIR      82  72  71 S5        29.99R                  
DUKE FIELD     FAIR      82  76  82 S7        29.98R                  
VALPARAISO     FAIR      84  74  73 SW6       29.98R                  
MARY ESTHER    MOCLDY    83  77  81 SW5       29.97R                  
TRI COUNTY     FAIR      80  75  84 CALM      30.00                   
PANAMA CITY    FAIR      83  78  85 S7        29.99R                  
TYNDALL AFB    FAIR      84  78  82 SW9       30.00R HX  96           
APALACHICOLA   FAIR      84  77  79 SW8       30.01R                  

STATION/POSITION SKY/WX   TEMP    WIND        PRES    WAVE   SWELL
                          AIR SEA DIR/SP/G            HT/PER HT/PER
                          (F)     (DEG/KT/KT) (MB)    (FT/S) (FT/S)
30.1N   87.6W                                   N/A     3/ 6
29.2N   88.2W                     180/ 10/ 12 1015.8F   3/ 6   3/ 6
PANAMA CITY BEAC           85 86  230/ 15/ 17 1016.0R
TOWER C          NOT AVBL

$$
FLZ011-016>038-118-127-128-134-139-239-250300-
NORTH FLORIDA
  
CITY           SKY/WX    TMP DP  RH WIND       PRES   REMARKS
MARIANNA       FAIR      82  75  79 SW7       29.98R                  
TALLAHASSEE    MOCLDY    85  77  77 SW8       30.00R HX  95           
PERRY          FAIR      83  80  88 SW3       30.02R HX  96           
LIVE OAK       MOCLDY    73  70  88 CALM      30.01F                  
CROSS CITY     FAIR      82  78  87 SW3       30.03R                  
LAKE CITY      DRIZZLE   72  68  88 CALM      30.04F                  
GAINESVILLE    FAIR      82  73  74 W7        30.05R                  
PALATKA        FAIR      81  72  74 W5        30.02R                  
MAYPORT NAS    FAIR      89  69  51 W9        29.98R                  
JACKSONVILLE   FAIR      86  68  54 W13       30.00R                  
JAX NAS        FAIR      89  66  46 W12       30.00R                  
JAX CECIL      CLEAR     84  68  58 SW8       30.01R                  
FERNANDINA BEA FAIR      85  75  72 W8        29.99R                  
ST AUGUSTINE   FAIR      85  72  65 SW5       30.01R                  
PALM COAST     FAIR      82  76  81 SW3       30.00R                  

STATION/POSITION SKY/WX   TEMP    WIND        PRES    WAVE   SWELL
                          AIR SEA DIR/SP/G            HT/PER HT/PER
                          (F)     (DEG/KT/KT) (MB)    (FT/S) (FT/S)
SHELL POINT      NOT AVBL
KEATON BEACH               85     250/ 16/ 18 1016.5R
CEDAR KEY                  85     260/  7/ 11 1016.8R
FERNANDINA                 86 87  170/  3/  5 1015.7R
30.7N   81.3W                 83                N/A     2/ 3
MAYPORT                    90 84  250/  9/ 11 1015.4R
31.4N   80.9W              84 83  200/ 16/ 19 1013.9R   2/ 4   2/ 9
ST AUGUSTINE               85 83  240/  4/  6 1016.2R

$$
FLZ040-043>046-052-053-057-058-063-144-250300-
INTERIOR CENTRAL FLORIDA
  
CITY           SKY/WX    TMP DP  RH WIND       PRES   REMARKS
LEESBURG       FAIR      82  72  71 W6        30.04R                  
SANFORD        FAIR      86  69  56 W10       30.01R                  
ORLANDO EXEC   FAIR      87  68  52 W9        30.02R                  
ORLANDO INTL   FAIR      87  68  52 W7        30.02R                  
KISSIMMEE      FAIR      84  72  67 W6        30.03R                  
WINTER HAVEN   FAIR      85  70  60 NW10      30.04R                  
LAKELAND       CLEAR     82  72  69 NW5       30.05R                  
SEBRING        FAIR      87  69  54 NW7       30.02R                  
OKEECHOBEE     FAIR      81  70  69 SE3       30.01S                  

$$
FLZ041-047-054-059-064-141-147-250300-
EAST CENTRAL FLORIDA
  
CITY           SKY/WX    TMP DP  RH WIND       PRES   REMARKS
DAYTONA BEACH  FAIR      83  74  74 W7        30.01R                  
DELAND         FAIR      84  68  58 W7        30.01R                  
NEW SMYRNA BEA CLEAR     82  75  78 CALM      30.02R                  
JFK SPACE CTR  FAIR      82  69  64 S5        30.00R                  
CAPE CANAVERAL FAIR      81  42  24 S6        30.00R                  
PATRICK AFB    FAIR      83  82  94 SE8       30.01R HX  98           
MELBOURNE      FAIR      85  77  77 S6        30.01R HX  95           
VERO BEACH     FAIR      84  79  85 S7        30.02R HX  96           
FT PIERCE      FAIR      84  76  76 S5        30.02R                  
STUART         CLOUDY    82  73  74 SE5       30.03S                  

STATION/POSITION SKY/WX   TEMP    WIND        PRES    WAVE   SWELL
                          AIR SEA DIR/SP/G            HT/PER HT/PER
                          (F)     (DEG/KT/KT) (MB)    (FT/S) (FT/S)
28.5N   80.2W              85     150/ 10/ 12 1016.6
28.9N   78.5W              83      CALM  /  2   N/A
TRIDENT PIER               81 75  150/  5/  9 1017.5R
28.4N   80.5W                 80                N/A     1/ 9
27.5N   80.2W                 82                N/A     1/ 9

$$
FLZ050-056-061-142-242-148-248-149-249-151-251-155-255-
160-260-250300-
WEST CENTRAL FLORIDA
  
CITY           SKY/WX    TMP DP  RH WIND       PRES   REMARKS
CRYSTAL RIVER  FAIR     N/A N/A N/A CALM      30.04R                  
INVERNESS      FAIR      79  79 100 CALM      30.04R                  
BROOKSVILLE    FAIR      77  74  90 S5        30.05R                  
CLEARWATER AIR FAIR      81  72  74 CALM      30.04S                  
ST PETE CLEARW FAIR      82  74  76 W5        30.04R                  
TAMPA INTL     FAIR      84  75  74 W6        30.05R                  
PLANT CITY       N/A    N/A N/A N/A MISG        N/A                   
MACDILL AFB    FAIR      83  74  73 W5        30.04R                  
PETER O KNIGHT CLOUDY    84  77  79 CALM      30.05R                  
ST PETERSBURG    N/A    N/A N/A N/A MISG      30.03R                  
SARASOTA       FAIR      81  74  79 NW6       30.02R                  
VENICE         FAIR      86  75  70 NW6       30.03S HX  95           

STATION/POSITION SKY/WX   TEMP    WIND        PRES    WAVE   SWELL
                          AIR SEA DIR/SP/G            HT/PER HT/PER
                          (F)     (DEG/KT/KT) (MB)    (FT/S) (FT/S)
27.3N   84.2W                 86                N/A     1/ 7
CLEARWATER BEACH           84 90  270/  6/  7 1017.4R
MIDDLE TAMPA BAY           85     330/  8/ 10 1017.3R
VENICE                     86 86  330/  9/ 10 1016.9S

$$
FLZ066-069-070-075>078-162-262-165-265-250300-
SOUTHWEST FLORIDA AND KEYS
  
CITY           SKY/WX    TMP DP  RH WIND       PRES   REMARKS
PUNTA GORDA    FAIR      84  75  74 NW7       30.04R                  
FT MYERS       FAIR      85  75  72 NW9       30.01S                  
SOUTHWEST INTL FAIR      84  72  67 NW5       30.02R                  
NAPLES         FAIR      87  76  69 NW6       30.02R HX  97           
IMMOKALEE      FAIR      82  72  69 CALM      30.00R                  
MARATHON       FAIR      87  74  64 SE5       30.03R HX  95           
KEY WEST NAS   FAIR      86  75  69 SE6       30.03R HX  95           
KEY WEST INTL  FAIR      86  75  69 SE7       30.04R HX  95           

STATION/POSITION SKY/WX   TEMP    WIND        PRES    WAVE   SWELL
                          AIR SEA DIR/SP/G            HT/PER HT/PER
                          (F)     (DEG/KT/KT) (MB)    (FT/S) (FT/S)
NAPLES                     87 92              1016.4S
DRY TORTUGAS               85      70/  7/  8 1017.0R
SAND KEY                   85                 1017.0R
SOMBRERO KEY               85                 1016.4R
LONG KEY                   87     140/ 12/ 16 1017.2

$$
FLZ067-068-071>074-168-172>174-250300-
SOUTHEAST FLORIDA 
  
CITY           SKY/WX    TMP DP  RH WIND       PRES   REMARKS
W PALM BEACH   FAIR      86  75  69 SE7       30.03S HX  95           
BOCA RATON     CLEAR     84  75  74 SE5       30.03R                  
FT LAUDER-EXEC FAIR      85  74  69 S3        30.03R                  
FT LAUDERDALE  FAIR      85  75  72 S5        30.03R                  
POMPANO BEACH  FAIR      86  76  71 S5        30.03R HX  96           
PEMBROKE PINES FAIR      86  75  69 S5        30.05R HX  95           
OPA LOCKA      FAIR      85  76  74 S3        30.04R                  
MIAMI          FAIR      86  74  67 S3        30.04R                  
WEST KENDALL   FAIR      83  76  79 CALM      30.04R                  
HOMESTEAD      FAIR      82  77  84 CALM      30.03R                  

STATION/POSITION SKY/WX   TEMP    WIND        PRES    WAVE   SWELL
                          AIR SEA DIR/SP/G            HT/PER HT/PER
                          (F)     (DEG/KT/KT) (MB)    (FT/S) (FT/S)
VIRGINIA KEY               87 91  150/  5/  6 1016.4R
LAKE WORTH                 84 85  170/  6/  7 1017.8F
FOWEY ROCKS                86 85  180/  7/  8 1017.6R
SETTLEMENT POINT           86     190/  2/  2 1017.2R

$$